Location: Ku?niki
(51.4449°N, 17.8974°E)
Time: 06:04:58
(UTC+00:00)

CENTAUR R/B - Pass Details

Date: 18 September 2020
Orbit: 755 x 1433 km, 63.4° (Epoch: 02 October)

Event Time Altitude Azimuth Distance (km) Brightness Sun altitude
Rises 19:24:05 0° 315° (NW) 4,098 7.2 -22.6°
Reaches altitude 10° 19:26:43 10° 313° (NW) 3,216 6.3 -22.9°
Maximum altitude 19:34:37 71° 232° (SW) 1,430 3.3 -23.9°
Enters shadow 19:38:32 36° 159° (SSE) 2,064 3.7 -24.4°
